This is the latest recevied weather packets stored in our database for station/object AC0YE. If no packets are shown the sender has not sent any weather packets the latest 10 day(s).
| Time | Temp. | Humidity | Pressure | Rain* | Wind** | Luminosity | Snow |
|---|---|---|---|---|---|---|---|
| 1777624216 | 3.89° C | 74% | 1017.5 hPa | 0 mm | - | - | - |
| 1777623616 | 3.33° C | 75% | 1017.5 hPa | 0 mm | - | - | - |
| 1777621816 | 2.78° C | 76% | 1017.4 hPa | 0 mm | - | - | - |
| 1777621516 | 2.78° C | 76% | 1017.2 hPa | 0 mm | - | - | - |
| 1777621216 | 2.78° C | 77% | 1017.3 hPa | 0 mm | - | - | - |
| 1777620316 | 2.78° C | 77% | 1017.3 hPa | 0 mm | - | - | - |
| 1777618836 | 3.33° C | 75% | 1017.3 hPa | 0 mm | - | - | - |
| 1777618536 | 2.78° C | 75% | 1017.2 hPa | 0 mm | - | - | - |
| 1777618216 | 2.78° C | 75% | 1017.2 hPa | 0 mm | - | - | - |
| 1777617916 | 3.33° C | 75% | 1017.3 hPa | 0 mm | - | - | - |
| 1777617316 | 3.33° C | 74% | 1017.4 hPa | 0 mm | - | - | - |
| 1777616716 | 3.33° C | 74% | 1017.4 hPa | 0 mm | - | - | - |
| 1777615216 | 3.89° C | 73% | 1017.5 hPa | 0 mm | - | - | - |
| 1777613716 | 3.89° C | 71% | 1017.2 hPa | 0 mm | - | - | - |
| 1777612816 | 4.44° C | 71% | 1017 hPa | 0 mm | - | - | - |
| 1777611916 | 5° C | 69% | 1016.9 hPa | 0 mm | - | - | - |
| 1777611016 | 5° C | 69% | 1016.9 hPa | 0 mm | - | - | - |
| 1777606216 | 6.67° C | 65% | 1017 hPa | 0 mm | - | - | - |
| 1777603836 | 7.78° C | 60% | 1016.8 hPa | 0 mm | - | - | - |
| 1777603536 | 7.78° C | 60% | 1016.8 hPa | 0 mm | - | - | - |
| 1777602916 | 8.33° C | 60% | 1016.6 hPa | 0 mm | - | - | - |
| 1777600236 | 10° C | 53% | 1015.9 hPa | 0 mm | - | - | - |
| 1777598716 | 10.56° C | 49% | 1015.7 hPa | 0 mm | - | - | - |
| 1777597215 | 11.11° C | 50% | 1015.3 hPa | 0 mm | - | - | - |
| 1777596035 | 11.11° C | 48% | 1015 hPa | 0 mm | - | - | - |
* Rain latest hour (hover to see other rain measurements)
** Current wind speed in m/s (hover to see current wind gust speed)